User: anonymous   Login
Location: Bow
(51.5261°N, 0.0167°W)
Time: 01:10:27
(UTC+00:00)
Language:

Sich 1 Rocket - Orbit

View from above orbital plane
View from above orbital plane
View from above satellite
View from above satellite

Ground track
Ground track

The orbit data is extracted from the following two-line orbital elements,

1 23659U 95046C   20336.40683036  .00000139  00000-0  15817-4 0  9992
2 23659  82.5318 213.2639 0027012  63.1866 108.4692 14.78353937361170
Epoch (UTC): 01 December 2020 09:45:50
Eccentricity: 0.0027012
inclination: 82.5318°
perigee height: 615 km
apogee height: 653 km
right ascension of ascending node: 213.2639°
argument of perigee: 63.1866°
revolutions per day: 14.78353937
mean anomaly at epoch: 108.4692°
orbit number at epoch: 36117

The dashed part of the orbit path shows where the satellite is in the earth's shadow,  

DLR